If you wish to contribute or participate in the discussions about articles you are invited to join SKYbrary as a registered user

 Actions

Agen-La Garenne Airport

From SKYbrary Wiki

LFBA
Airport
ICAO: LFBA – IATA: AGF
Summary
Name Agen-La Garenne Airport
Region Europe
Territory France FR.gif
Location Agen, Aquitaine
Serving Agen
Elevation 62.179 m
204 ft
204 ft62.179 m
Type medium airport
Coordinates 44° 10' 29.00" N, 0° 35' 26.00" E
Runways
Designator Length Width Surface ROPS
11/29 2165 m7,103.018 ft
30 m98.425 ft
ASP /


METAR
Observation LFBA 102200Z AUTO 27004KT CAVOK 13/09 Q1016
Station Agen
Date/Time 10 June 2019 22:00:00
Wind direction 270°
Wind speed 04 kts
Lowest cloud amount clouds and visibility OK
Temperature 13°C
Dew point 9°C
Humidity 76%
QNH 1016 hPa
Weather condition n/a

Maps

Terrain

Loading map...

Airport Layout

Loading map...


Accidents & Serious Incidents at or in vicinity of LFBA

None on SKYbrary